FW5729 Weather Reports


Display with metric or nautical units.
time (UTC)temp
F
wind
direction
speed
MPH
gust
MPH
rain 1hr
in
rain 24hr
in
rain mn
in
humidity
%
barometer
mb
20260504231533 83 70 2.0 9.0 0.00 0.00 0.00 54 1008.2
20260504230031 83 210 2.0 8.0 0.00 0.00 0.00 54 1008.2
20260504224532 83 149 4.0 10.0 0.00 0.00 0.00 54 1008.6
20260504223033 84 233 2.0 12.0 0.00 0.00 0.00 54 1008.7
20260504221536 85 224 2.0 8.0 0.00 0.00 0.00 53 1008.7
20260504220046 86 224 4.0 10.0 0.00 0.00 0.00 51 1008.8
20260504214539 85 180 2.0 10.0 0.00 0.00 0.00 51 1009.0
20260504213047 86 206 3.0 11.0 0.00 0.00 0.00 50 1009.0
20260504211538 86 203 3.0 9.0 0.00 0.00 0.00 51 1009.1
20260504210033 85 210 3.0 9.0 0.00 0.00 0.00 50 1009.2
20260504204543 85 136 3.0 13.0 0.00 0.00 0.00 52 1009.8
20260504203038 84 194 2.0 9.0 0.00 0.00 0.00 52 1009.9
20260504201539 84 204 2.0 10.0 0.00 0.00 0.00 54 1010.4
20260504200043 84 210 3.0 8.0 0.00 0.00 0.00 53 1010.6
20260504194536 84 217 1.0 7.0 0.00 0.00 0.00 54 1010.8
20260504193042 83 221 3.0 9.0 0.00 0.00 0.00 54 1011.0
20260504191551 83 219 2.0 8.0 0.00 0.00 0.00 56 1011.3
20260504190044 82 211 2.0 6.0 0.00 0.00 0.00 56 1011.6
20260504184551 81 183 1.0 9.0 0.00 0.00 0.00 56 1011.8
20260504183050 81 196 0.0 10.0 0.00 0.00 0.00 58 1011.8
20260504181535 79 246 1.0 7.0 0.00 0.00 0.00 60 1012.3
20260504180034 79 176 3.0 8.0 0.00 0.00 0.00 60 1012.4
20260504174539 78 0 2.0 9.0 0.00 0.00 0.00 63 1012.4
20260504173032 76 122 0.0 6.0 0.00 0.00 0.00 66 1012.7
20260504171532 74 0 0.0 9.0 0.00 0.00 0.00 66 1013.5
20260504081536 60 0 0.0 1.0 0.00 0.00 0.00 81 1014.3
20260504044540 65 201 0.0 4.0 0.00 0.00 0.00 60 1016.6
20260504043035 65 0 0.0 6.0 0.00 0.00 0.00 59 1016.7
20260504041535 65 200 1.0 4.0 0.00 0.00 0.00 58 1016.6
20260504040041 65 178 1.0 3.0 0.00 0.00 0.00 57 1016.6
20260504034552 66 0 0.0 2.0 0.00 0.00 0.00 55 1016.6
20260504033033 66 0 0.0 2.0 0.00 0.00 0.00 54 1016.7
20260504031535 66 0 0.0 2.0 0.00 0.00 0.00 54 1016.5
20260504030043 67 0 0.0 1.0 0.00 0.00 0.00 53 1016.6
20260504024536 67 0 0.0 2.0 0.00 0.00 0.00 52 1016.6
20260504023057 68 0 0.0 1.0 0.00 0.00 0.00 51 1016.5
20260504021530 68 0 0.0 0.0 0.00 0.00 0.00 50 1016.4
20260504020038 69 0 0.0 2.0 0.00 0.00 0.00 49 1016.3
20260504014544 69 0 0.0 3.0 0.00 0.00 0.00 49 1016.2
20260504013043 70 0 0.0 1.0 0.00 0.00 0.00 46 1015.9
20260504011530 71 0 0.0 0.0 0.00 0.00 0.00 45 1015.9
20260504010030 72 0 0.0 2.0 0.00 0.00 0.00 44 1015.8
20260504004537 73 0 0.0 2.0 0.00 0.00 0.00 42 1015.8
20260504003037 74 176 0.0 2.0 0.00 0.00 0.00 41 1015.9
20260504001534 75 0 0.0 3.0 0.00 0.00 0.00 41 1016.0
20260504000033 76 220 0.0 6.0 0.00 0.00 0.00 38 1016.1
20260503234541 77 224 2.0 6.0 0.00 0.00 0.00 35 1016.3
20260503233033 79 172 2.0 7.0 0.00 0.00 0.00 35 1016.4